[[{"header":{"parameterUnit":"m.s-1","parameterCategory":1,"la1":30.2991,"la2":30.254,"lo1":-89.0895,"lo2":-89.0444,"dy":0.0017,"dx":0.0017,"nx":28,"ny":28,"refTime":"2025-03-10T09:00:00:Z","depth":0,"parameterNumber":2,"parameterNumberName":"U-component_of_WINDS"},"data":[0,0,0,0,0,0,0,0,0,0,0,0,0,0,0,0,0,0,0,0,0,0,0,0,0,0,0,0,0,0,0,0,0,0,0,0,0,0,0,0,0,0,0,0,0,0,0,0,0,0,0,0,0,0,0,0,0,0,1.1801,1.1801,0,1.1824,1.1824,1.1824,1.1822,1.1822,1.1822,1.1821,1.1844,1.1844,1.1845,0,0,0,0,0,0,0,0,0,0,0,0,0,1.1754,1.1754,1.1801,1.1801,1.1801,1.1824,1.1824,1.1824,1.1822,1.1822,1.1822,1.1821,1.1843,1.1844,1.1845,0,0,0,0,0,0,0,0,0,0,0,0,0,1.1775,1.1755,1.1801,1.1803,1.1804,1.1824,1.1824,1.1825,1.1823,1.1822,1.1822,1.1821,1.1843,1.1844,1.1846,1.1864,0,0,1.185,1.185,0,0,0,0,0,0,0,0,1.1774,1.1777,1.1802,1.1803,1.1804,1.182,1.1816,1.1838,1.1823,1.1815,1.1821,1.1821,1.1836,1.1838,1.1843,1.1865,1.1866,1.185,1.1851,1.1851,1.1852,0,0,0,0,0,0,0,1.1772,1.1776,1.181,1.1803,1.1803,1.1803,1.1805,1.182,1.1828,1.1816,1.1816,1.1819,1.1836,1.1842,1.1844,1.1867,1.185,1.1851,1.1852,1.1852,1.1905,1.1906,0,0,0,0,0,0,1.1771,1.1775,1.1809,1.1811,1.1787,1.1804,1.1807,1.1815,1.1828,1.183,1.1819,1.1819,1.184,1.1842,1.1845,1.1867,1.1851,1.1853,1.1853,1.1905,1.1906,1.1906,0,0,0,0,0,0,1.177,1.1774,1.1808,1.1793,1.1797,1.1805,1.1815,1.1816,1.1822,1.183,1.1832,1.1824,1.184,1.1843,1.186,1.1868,1.1853,1.1854,1.1904,1.1905,1.1906,1.1913,0,0,0,0,0,0,1.1768,1.1773,1.1781,1.1793,1.1798,1.1823,1.1815,1.1817,1.1824,1.1824,1.1835,1.1836,1.1839,1.1858,1.1861,1.187,1.1855,1.1903,1.1905,1.1906,1.1912,1.1914,1.1916,0,0,0,0,0,1.1767,1.1782,1.1781,1.1785,1.1807,1.1824,1.1826,1.183,1.1825,1.1832,1.1838,1.1836,1.1867,1.1859,1.1863,1.1872,1.1903,1.1904,1.1905,1.1911,1.1914,1.1916,0,0,0,0,0,0,1.177,1.1783,1.1783,1.1802,1.1812,1.1823,1.1833,1.1832,1.1843,1.1842,1.1846,1.1848,1.1865,1.1871,1.1862,1.1891,1.1884,1.1886,1.1887,1.189,1.1891,1.189,1.1857,0,0,0,0,0,1.1773,1.1785,1.1796,1.1812,1.1817,1.1824,1.1831,1.1834,1.1843,1.1847,1.1854,1.1863,1.1875,1.1883,1.1894,1.1913,1.1915,1.1921,1.1923,1.1925,1.1926,1.1937,1.194,1.1911,1.191,1.191,0,0,1.1779,1.1788,1.1796,1.1813,1.1821,1.1834,1.1828,1.1841,1.185,1.1849,1.1866,1.1871,1.1882,1.19,1.1908,1.1905,1.1935,1.1926,1.1928,1.1928,1.1938,1.1941,1.1944,1.1911,1.1911,1.1911,0,0,1.1797,1.1805,1.1819,1.1827,1.1839,1.1844,1.1847,1.1859,1.1863,1.188,1.1879,1.189,1.191,1.1918,1.1924,1.1945,1.1944,1.1949,1.1958,1.1968,1.1971,1.1973,1.198,1.1983,1.195,1.1951,1.1951,0,1.1803,1.1822,1.1827,1.1841,1.1848,1.1848,1.1863,1.187,1.1885,1.189,1.1886,1.1912,1.1919,1.1939,1.1944,1.1949,1.1953,1.1947,1.197,1.1972,1.1974,1.1981,1.1984,1.1951,1.1951,1.1951,1.1951,0,1.1829,1.1843,1.1853,1.1868,1.1877,1.189,1.1897,1.1905,1.1906,1.1911,1.1928,1.1937,1.195,1.1955,1.1956,1.1975,1.1973,1.1969,1.1962,1.1977,1.1984,1.1987,1.1952,1.1952,1.1951,1.1951,0,0,1.1849,1.1867,1.187,1.1877,1.1891,1.1901,1.1915,1.1928,1.1935,1.1945,1.1957,1.1974,1.1972,1.1979,1.1981,1.199,1.2006,1.1986,1.1986,1.1989,1.2027,1.2029,1.2032,1.2005,1.2006,1.2006,1.2026,0,1.1868,1.1893,1.1898,1.192,1.1932,1.1933,1.1945,1.1954,1.1959,1.197,1.1975,1.1987,1.1983,1.1987,1.1996,1.2002,1.2014,1.2001,1.2016,1.2016,1.2013,1.2036,1.2038,1.2056,1.2029,1.2029,1.203,0,1.1893,1.1905,1.1928,1.194,1.1946,1.1956,1.1969,1.198,1.199,1.1993,1.2002,1.2003,1.2017,1.201,1.2029,1.202,1.2026,1.203,1.2031,1.2032,1.2023,1.2037,1.2062,1.2064,1.2034,1.2033,1.2033,0,1.1905,1.1927,1.1943,1.1949,1.1964,1.1971,1.1978,1.1988,1.1996,1.2006,1.2012,1.2024,1.203,1.204,1.2044,1.2038,1.2063,1.2056,1.2065,1.2065,1.207,1.207,1.2096,1.2075,1.2075,1.2075,1.2075,0,1.1926,1.194,1.1949,1.1959,1.1975,1.198,1.1995,1.2001,1.201,1.2021,1.2023,1.2033,1.2038,1.2049,1.2053,1.2068,1.2071,1.2073,1.2074,1.2073,1.2073,1.2077,1.2076,1.2076,1.2075,1.2075,1.2075,0,1.1941,1.1948,1.1966,1.1979,1.1982,1.1993,1.2004,1.2014,1.2019,1.2033,1.2036,1.2044,1.2057,1.2063,1.2079,1.2081,1.2098,1.2098,1.2095,1.2095,1.2104,1.2103,1.2134,1.2138,1.2115,1.2115,1.2115,0,1.1954,1.1965,1.1979,1.1986,1.1993,1.2006,1.2014,1.2019,1.2027,1.2041,1.2049,1.2062,1.2073,1.2093,1.21,1.2112,1.2112,1.2122,1.2114,1.2113,1.2112,1.2111,1.2112,1.2123,1.2124,1.2124,1.2124,0,1.1975,1.1978,1.199,1.2003,1.2013,1.2024,1.2034,1.204,1.2047,1.2056,1.207,1.2078,1.2095,1.2108,1.212,1.2126,1.2126,1.2127,1.213,1.2128,1.2126,1.2127,1.2099,1.2126,1.2126,1.2126,1.2125,1.2125,1.1989,1.1999,1.201,1.2024,1.2032,1.2042,1.2052,1.2058,1.207,1.2084,1.2087,1.2101,1.2111,1.2128,1.2135,1.2146,1.2144,1.2148,1.2149,1.2149,1.215,1.2125,1.2148,1.2148,1.2148,1.2148,1.2148,0,1.201,1.2018,1.203,1.2045,1.2055,1.2055,1.2066,1.2075,1.2088,1.2098,1.2109,1.2124,1.2137,1.2145,1.2158,1.2165,1.2165,1.2168,1.2167,1.2169,1.2152,1.2148,1.2168,1.2168,1.2168,1.2168,1.2168,1.2168,1.2022,1.2039,1.2043,1.2064,1.2071,1.2086,1.2092,1.2101,1.2109,1.2127,1.2137,1.2143,1.2152,1.2165,1.2177,1.2179,1.2183,1.2186,1.2188,1.2172,1.217,1.2168,1.2164,1.2187,1.2187,1.2204,1.2204,1.2204]},{"header":{"parameterUnit":"m.s-1","parameterCategory":1,"la1":30.2991,"la2":30.254,"lo1":-89.0895,"lo2":-89.0444,"dy":0.0017,"dx":0.0017,"nx":28,"ny":28,"refTime":"2025-03-10T09:00:00:Z","depth":0,"parameterNumber":3,"parameterNumberName":"V-component_of_WINDS"},"data":[0,0,0,0,0,0,0,0,0,0,0,0,0,0,0,0,0,0,0,0,0,0,0,0,0,0,0,0,0,0,0,0,0,0,0,0,0,0,0,0,0,0,0,0,0,0,0,0,0,0,0,0,0,0,0,0,0,0,-2.0778,-2.0779,0,-2.0899,-2.09,-2.0902,-2.0904,-2.0902,-2.0901,-2.0899,-2.1024,-2.1029,-2.1033,0,0,0,0,0,0,0,0,0,0,0,0,0,-2.055,-2.0554,-2.0778,-2.0779,-2.0781,-2.0899,-2.09,-2.0902,-2.0904,-2.0902,-2.09,-2.0899,-2.1022,-2.1028,-2.1034,0,0,0,0,0,0,0,0,0,0,0,0,0,-2.0658,-2.0555,-2.0778,-2.0796,-2.0799,-2.0898,-2.0901,-2.0903,-2.0904,-2.0902,-2.09,-2.0898,-2.1021,-2.1027,-2.1034,-2.1124,0,0,-2.1056,-2.1059,0,0,0,0,0,0,0,0,-2.0652,-2.0666,-2.0792,-2.0795,-2.0798,-2.0884,-2.0866,-2.0977,-2.0905,-2.0864,-2.0899,-2.0897,-2.0979,-2.099,-2.1017,-2.113,-2.1135,-2.1057,-2.1061,-2.1064,-2.1066,0,0,0,0,0,0,0,-2.0644,-2.0661,-2.0826,-2.0794,-2.0798,-2.0799,-2.0812,-2.0887,-2.0933,-2.0868,-2.0868,-2.0882,-2.0981,-2.1011,-2.102,-2.1137,-2.1057,-2.1063,-2.1067,-2.107,-2.133,-2.1332,0,0,0,0,0,0,-2.0633,-2.0655,-2.0822,-2.0829,-2.0718,-2.0805,-2.0819,-2.0859,-2.0932,-2.0941,-2.0884,-2.0882,-2.1,-2.1012,-2.1025,-2.1135,-2.1064,-2.1071,-2.1075,-2.1327,-2.133,-2.1333,0,0,0,0,0,0,-2.0628,-2.0648,-2.0817,-2.0742,-2.0764,-2.0811,-2.0856,-2.0862,-2.0892,-2.0945,-2.0953,-2.0906,-2.0998,-2.1015,-2.1099,-2.1139,-2.1074,-2.108,-2.1324,-2.1328,-2.1332,-2.1356,0,0,0,0,0,0,-2.0621,-2.0646,-2.068,-2.0743,-2.0768,-2.089,-2.0858,-2.0866,-2.0904,-2.0903,-2.0968,-2.0976,-2.0998,-2.1089,-2.1106,-2.1148,-2.1086,-2.1321,-2.1326,-2.1331,-2.1351,-2.136,-2.1367,0,0,0,0,0,-2.0613,-2.0682,-2.0682,-2.0702,-2.0811,-2.0892,-2.0906,-2.0929,-2.0908,-2.0943,-2.0977,-2.0974,-2.1132,-2.1097,-2.1117,-2.1161,-2.1318,-2.1325,-2.133,-2.1348,-2.1358,-2.1367,0,0,0,0,0,0,-2.0622,-2.069,-2.0691,-2.0782,-2.0831,-2.0892,-2.0937,-2.0939,-2.0995,-2.0992,-2.1018,-2.1033,-2.1117,-2.1148,-2.1108,-2.1252,-2.1223,-2.1233,-2.1229,-2.124,-2.1247,-2.1238,-2.1092,0,0,0,0,0,-2.0635,-2.0694,-2.075,-2.0825,-2.085,-2.0889,-2.0925,-2.0939,-2.0991,-2.1011,-2.1051,-2.1102,-2.1163,-2.1203,-2.1262,-2.1356,-2.1371,-2.1396,-2.1404,-2.141,-2.1419,-2.1471,-2.1484,-2.1353,-2.1353,-2.1353,0,0,-2.0662,-2.0706,-2.0742,-2.0828,-2.0868,-2.0929,-2.0907,-2.0972,-2.1018,-2.1021,-2.1104,-2.1135,-2.1194,-2.1284,-2.1325,-2.1312,-2.1458,-2.1418,-2.1422,-2.1428,-2.1479,-2.1491,-2.1502,-2.1357,-2.1356,-2.1356,0,0,-2.0741,-2.0781,-2.0848,-2.0888,-2.0948,-2.0974,-2.099,-2.1051,-2.1072,-2.1155,-2.1159,-2.1215,-2.1319,-2.1361,-2.1396,-2.1493,-2.1493,-2.1511,-2.1552,-2.1603,-2.1613,-2.1623,-2.1658,-2.167,-2.1519,-2.152,-2.152,0,-2.0767,-2.0859,-2.0882,-2.0948,-2.0986,-2.0992,-2.1061,-2.1099,-2.1175,-2.1202,-2.1186,-2.1318,-2.1358,-2.1458,-2.1481,-2.1509,-2.1529,-2.1504,-2.161,-2.1619,-2.1628,-2.1662,-2.1675,-2.1521,-2.1521,-2.1521,-2.1521,0,-2.0888,-2.0951,-2.0998,-2.1072,-2.1116,-2.1183,-2.1216,-2.1258,-2.1268,-2.1296,-2.1381,-2.1429,-2.1498,-2.1523,-2.1533,-2.1625,-2.1615,-2.1604,-2.1575,-2.1642,-2.1675,-2.1688,-2.1524,-2.1523,-2.1523,-2.1522,0,0,-2.0976,-2.1062,-2.1079,-2.1113,-2.1181,-2.1231,-2.1298,-2.1366,-2.1401,-2.1454,-2.1512,-2.1601,-2.1591,-2.1631,-2.1646,-2.1691,-2.1766,-2.1675,-2.1677,-2.1691,-2.187,-2.1878,-2.1893,-2.1766,-2.1769,-2.1771,-2.1866,0,-2.1063,-2.1183,-2.1206,-2.1311,-2.137,-2.1377,-2.1436,-2.1484,-2.1512,-2.1567,-2.1598,-2.1661,-2.1644,-2.1668,-2.1712,-2.1747,-2.1802,-2.174,-2.1821,-2.1823,-2.1806,-2.191,-2.1918,-2.2006,-2.1878,-2.1881,-2.1882,0,-2.1181,-2.1237,-2.1347,-2.1407,-2.1433,-2.1486,-2.155,-2.1603,-2.1658,-2.1675,-2.172,-2.173,-2.1802,-2.1769,-2.1868,-2.1825,-2.186,-2.1882,-2.1886,-2.1894,-2.1857,-2.1922,-2.2034,-2.2047,-2.1902,-2.19,-2.1899,0,-2.1235,-2.1338,-2.1418,-2.1446,-2.1518,-2.1555,-2.1587,-2.164,-2.168,-2.1736,-2.1762,-2.1826,-2.1861,-2.1911,-2.1939,-2.1913,-2.2036,-2.2006,-2.2053,-2.2052,-2.2079,-2.2077,-2.2199,-2.21,-2.21,-2.21,-2.21,0,-2.1331,-2.1398,-2.1443,-2.1492,-2.1568,-2.1594,-2.1669,-2.17,-2.1747,-2.1803,-2.1813,-2.1865,-2.1899,-2.1956,-2.1978,-2.2057,-2.2073,-2.2089,-2.2094,-2.2089,-2.2087,-2.2112,-2.2106,-2.2103,-2.2103,-2.2102,-2.2101,0,-2.1404,-2.1437,-2.1524,-2.1585,-2.1602,-2.1656,-2.1708,-2.1756,-2.1784,-2.1855,-2.1873,-2.1917,-2.1985,-2.2018,-2.2102,-2.2117,-2.2207,-2.2208,-2.2188,-2.219,-2.2236,-2.2232,-2.2379,-2.24,-2.2287,-2.2288,-2.2289,0,-2.1463,-2.1515,-2.1582,-2.162,-2.1652,-2.1713,-2.1754,-2.1782,-2.1824,-2.1891,-2.1931,-2.2,-2.2056,-2.2164,-2.2204,-2.2269,-2.2272,-2.2319,-2.2282,-2.2274,-2.2273,-2.227,-2.2276,-2.2326,-2.2327,-2.2328,-2.2328,0,-2.1564,-2.1578,-2.1635,-2.1699,-2.1747,-2.1799,-2.185,-2.1881,-2.1917,-2.1964,-2.2033,-2.2077,-2.2163,-2.2231,-2.2299,-2.2332,-2.2337,-2.234,-2.2354,-2.2349,-2.2336,-2.2344,-2.2207,-2.2336,-2.2335,-2.2335,-2.2334,-2.2334,-2.1632,-2.1679,-2.1734,-2.1798,-2.1839,-2.1887,-2.1935,-2.197,-2.2028,-2.21,-2.2114,-2.2188,-2.2242,-2.2334,-2.237,-2.2428,-2.2418,-2.2439,-2.2444,-2.2449,-2.2452,-2.2326,-2.2441,-2.2441,-2.244,-2.244,-2.244,0,-2.1734,-2.177,-2.1829,-2.19,-2.1951,-2.195,-2.2007,-2.205,-2.2115,-2.2165,-2.222,-2.2301,-2.2367,-2.2413,-2.248,-2.2518,-2.2522,-2.2535,-2.2533,-2.2541,-2.2457,-2.2438,-2.2531,-2.2531,-2.2531,-2.2531,-2.2531,-2.2531,-2.1794,-2.1873,-2.1893,-2.1994,-2.2029,-2.2102,-2.2134,-2.2178,-2.2219,-2.2308,-2.2363,-2.2392,-2.2441,-2.2513,-2.2574,-2.2585,-2.261,-2.2623,-2.2635,-2.2556,-2.2546,-2.2537,-2.252,-2.2628,-2.2629,-2.2714,-2.2715,-2.2716]}]]